contact:dominique.lefevre@mio.osupytheas.fr, maurice.libes@osupytheas.fr, didier.mallarino@osupytheas.fr
Project:EMSO http://www.emso-fr.org/EMSO-France
Depth: 2436.0 m
Title:EMSO Ligure Ouest : Data MII capteur CSTAR
DateTime,Latitude,Longitude,Instrument_Serial,Reference_Counts,Signal_Counts,Corrected_Signal_raw_counts,Calculated_Beam_c_inverse_meters,Internal_thermistor_counts
DateTime,Latitude,Longitude,Instrument_Serial,Reference_Counts,Signal_Counts,Corrected_Signal_raw_counts,Calculated_Beam_c_inverse_meters,Internal_thermistor_counts
2021-09-20T00:01:52,42.805,6.029,CST-1368DR,5210,7075,14542,0.285,551
2021-09-20T00:04:53,42.805,6.029,CST-1368DR,5210,7075,14543,0.285,551
2021-09-20T00:07:55,42.805,6.029,CST-1368DR,5210,7075,14542,0.285,551
2021-09-20T00:10:56,42.805,6.029,CST-1368DR,5210,7075,14542,0.285,551
2021-09-20T00:13:58,42.805,6.029,CST-1368DR,5210,7075,14542,0.285,551
2021-09-20T00:16:59,42.805,6.029,CST-1368DR,5210,7075,14541,0.285,551
2021-09-20T00:20:01,42.805,6.029,CST-1368DR,5210,7075,14542,0.285,551
2021-09-20T00:23:03,42.805,6.029,CST-1368DR,5210,7075,14542,0.285,551
2021-09-20T00:26:04,42.805,6.029,CST-1368DR,5210,7075,14541,0.285,551
2021-09-20T00:29:06,42.805,6.029,CST-1368DR,5210,7074,14540,0.286,551
2021-09-20T00:32:07,42.805,6.029,CST-1368DR,5210,7074,14540,0.286,551
2021-09-20T00:35:09,42.805,6.029,CST-1368DR,5210,7072,14537,0.286,551
2021-09-20T00:38:11,42.805,6.029,CST-1368DR,5210,7075,14541,0.285,551
2021-09-20T00:41:12,42.805,6.029,CST-1368DR,5210,7075,14541,0.285,551
2021-09-20T00:44:14,42.805,6.029,CST-1368DR,5210,7075,14542,0.285,551
2021-09-20T00:47:15,42.805,6.029,CST-1368DR,5210,7075,14541,0.285,551
2021-09-20T00:50:17,42.805,6.029,CST-1368DR,5210,7074,14540,0.286,551
2021-09-20T00:53:18,42.805,6.029,CST-1368DR,5210,7075,14541,0.285,551
2021-09-20T00:56:20,42.805,6.029,CST-1368DR,5210,7074,14540,0.286,551
2021-09-20T00:59:22,42.805,6.029,CST-1368DR,5210,7074,14540,0.286,551
2021-09-20T01:02:23,42.805,6.029,CST-1368DR,5210,7074,14541,0.285,551
2021-09-20T01:05:25,42.805,6.029,CST-1368DR,5210,7074,14540,0.286,551
2021-09-20T01:08:26,42.805,6.029,CST-1368DR,5210,7074,14541,0.285,551
2021-09-20T01:11:28,42.805,6.029,CST-1368DR,5210,7074,14539,0.286,551
2021-09-20T01:14:29,42.805,6.029,CST-1368DR,5210,7074,14539,0.286,551
2021-09-20T01:17:31,42.805,6.029,CST-1368DR,5210,7074,14540,0.286,551
2021-09-20T01:20:33,42.805,6.029,CST-1368DR,5210,7074,14541,0.285,551
2021-09-20T01:23:34,42.805,6.029,CST-1368DR,5209,7074,14543,0.285,551
2021-09-20T01:26:36,42.805,6.029,CST-1368DR,5210,7074,14541,0.285,551
2021-09-20T01:29:37,42.805,6.029,CST-1368DR,5210,7074,14540,0.286,551
2021-09-20T01:32:39,42.805,6.029,CST-1368DR,5210,7074,14540,0.286,551
2021-09-20T01:35:41,42.805,6.029,CST-1368DR,5210,7074,14540,0.286,551
2021-09-20T01:38:42,42.805,6.029,CST-1368DR,5210,7074,14539,0.286,551
2021-09-20T01:41:44,42.805,6.029,CST-1368DR,5209,7074,14542,0.285,551
2021-09-20T01:44:45,42.805,6.029,CST-1368DR,5210,7074,14540,0.286,551
2021-09-20T01:47:47,42.805,6.029,CST-1368DR,5209,7074,14544,0.284,551
2021-09-20T01:50:48,42.805,6.029,CST-1368DR,5209,7073,14541,0.285,551
2021-09-20T01:53:50,42.805,6.029,CST-1368DR,5209,7074,14543,0.285,551
2021-09-20T01:56:52,42.805,6.029,CST-1368DR,5210,7074,14540,0.286,551
2021-09-20T01:59:53,42.805,6.029,CST-1368DR,5210,7074,14540,0.286,551
2021-09-20T02:02:55,42.805,6.029,CST-1368DR,5209,7074,14543,0.285,551
2021-09-20T02:05:56,42.805,6.029,CST-1368DR,5210,7073,14538,0.286,551
2021-09-20T02:08:58,42.805,6.029,CST-1368DR,5209,7074,14543,0.285,551
2021-09-20T02:11:59,42.805,6.029,CST-1368DR,5209,7074,14542,0.285,551
2021-09-20T02:15:01,42.805,6.029,CST-1368DR,5209,7073,14541,0.285,551
2021-09-20T02:18:03,42.805,6.029,CST-1368DR,5209,7074,14543,0.285,551
2021-09-20T02:21:04,42.805,6.029,CST-1368DR,5209,7074,14542,0.285,551
2021-09-20T02:24:06,42.805,6.029,CST-1368DR,5209,7073,14540,0.286,551
2021-09-20T02:27:07,42.805,6.029,CST-1368DR,5209,7074,14542,0.285,551
2021-09-20T02:30:09,42.805,6.029,CST-1368DR,5209,7074,14543,0.285,551
2021-09-20T02:33:11,42.805,6.029,CST-1368DR,5209,7074,14543,0.285,551
2021-09-20T02:36:12,42.805,6.029,CST-1368DR,5209,7073,14541,0.285,551
2021-09-20T02:39:14,42.805,6.029,CST-1368DR,5209,7074,14542,0.285,551
2021-09-20T02:42:15,42.805,6.029,CST-1368DR,5209,7074,14542,0.285,551
2021-09-20T02:45:17,42.805,6.029,CST-1368DR,5209,7073,14541,0.285,551
2021-09-20T02:48:18,42.805,6.029,CST-1368DR,5209,7073,14541,0.285,551
2021-09-20T02:51:20,42.805,6.029,CST-1368DR,5209,7074,14542,0.285,551
2021-09-20T02:54:22,42.805,6.029,CST-1368DR,5209,7074,14543,0.285,551
2021-09-20T02:57:23,42.805,6.029,CST-1368DR,5209,7074,14542,0.285,551
2021-09-20T03:00:25,42.805,6.029,CST-1368DR,5209,7073,14541,0.285,551
2021-09-20T03:03:26,42.805,6.029,CST-1368DR,5209,7074,14542,0.285,551
2021-09-20T03:06:28,42.805,6.029,CST-1368DR,5209,7074,14543,0.285,551
2021-09-20T03:09:30,42.805,6.029,CST-1368DR,5209,7074,14543,0.285,551
2021-09-20T03:12:31,42.805,6.029,CST-1368DR,5209,7073,14541,0.285,551
2021-09-20T03:15:33,42.805,6.029,CST-1368DR,5209,7072,14539,0.286,551
2021-09-20T03:18:34,42.805,6.029,CST-1368DR,5209,7073,14541,0.285,551
2021-09-20T03:21:36,42.805,6.029,CST-1368DR,5209,7071,14537,0.286,551
2021-09-20T03:24:37,42.805,6.029,CST-1368DR,5209,7074,14542,0.285,551
2021-09-20T03:27:39,42.805,6.029,CST-1368DR,5209,7073,14541,0.285,551
2021-09-20T03:30:41,42.805,6.029,CST-1368DR,5209,7074,14542,0.285,551
2021-09-20T03:33:42,42.805,6.029,CST-1368DR,5209,7074,14542,0.285,551
2021-09-20T03:36:44,42.805,6.029,CST-1368DR,5209,7073,14541,0.285,551
2021-09-20T03:39:45,42.805,6.029,CST-1368DR,5209,7074,14542,0.285,551
2021-09-20T03:42:47,42.805,6.029,CST-1368DR,5209,7074,14542,0.285,551
2021-09-20T03:45:49,42.805,6.029,CST-1368DR,5209,7074,14542,0.285,551
2021-09-20T03:48:50,42.805,6.029,CST-1368DR,5209,7074,14543,0.285,551
2021-09-20T03:51:52,42.805,6.029,CST-1368DR,5209,7073,14540,0.286,551
2021-09-20T03:54:53,42.805,6.029,CST-1368DR,5209,7071,14537,0.286,551
2021-09-20T03:57:55,42.805,6.029,CST-1368DR,5209,7073,14541,0.285,551
2021-09-20T04:00:56,42.805,6.029,CST-1368DR,5209,7074,14542,0.285,551
2021-09-20T04:03:58,42.805,6.029,CST-1368DR,5209,7074,14543,0.285,551
2021-09-20T04:07:00,42.805,6.029,CST-1368DR,5209,7073,14540,0.286,551
2021-09-20T04:10:01,42.805,6.029,CST-1368DR,5209,7073,14541,0.285,551
2021-09-20T04:13:03,42.805,6.029,CST-1368DR,5209,7072,14539,0.286,551
2021-09-20T04:16:04,42.805,6.029,CST-1368DR,5209,7072,14539,0.286,551
2021-09-20T04:19:06,42.805,6.029,CST-1368DR,5209,7072,14539,0.286,551
2021-09-20T04:22:07,42.805,6.029,CST-1368DR,5209,7072,14539,0.286,551
2021-09-20T04:25:09,42.805,6.029,CST-1368DR,5209,7073,14541,0.285,551
2021-09-20T04:28:11,42.805,6.029,CST-1368DR,5209,7071,14536,0.287,551
2021-09-20T04:31:12,42.805,6.029,CST-1368DR,5209,7073,14541,0.285,551
2021-09-20T04:34:14,42.805,6.029,CST-1368DR,5209,7072,14539,0.286,551
2021-09-20T04:37:15,42.805,6.029,CST-1368DR,5209,7072,14539,0.286,551
2021-09-20T04:40:17,42.805,6.029,CST-1368DR,5209,7073,14541,0.285,551
2021-09-20T04:43:19,42.805,6.029,CST-1368DR,5209,7072,14538,0.286,550
2021-09-20T04:46:20,42.805,6.029,CST-1368DR,5209,7073,14540,0.286,551
2021-09-20T04:49:22,42.805,6.029,CST-1368DR,5209,7073,14541,0.285,551
2021-09-20T04:52:23,42.805,6.029,CST-1368DR,5209,7073,14541,0.285,551
2021-09-20T04:55:25,42.805,6.029,CST-1368DR,5209,7072,14538,0.286,550
2021-09-20T04:58:26,42.805,6.029,CST-1368DR,5209,7072,14539,0.286,551
2021-09-20T05:01:28,42.805,6.029,CST-1368DR,5209,7072,14539,0.286,551
2021-09-20T05:04:30,42.805,6.029,CST-1368DR,5209,7072,14539,0.286,551
2021-09-20T05:07:31,42.805,6.029,CST-1368DR,5209,7072,14539,0.286,551
2021-09-20T05:10:33,42.805,6.029,CST-1368DR,5209,7072,14539,0.286,551
2021-09-20T05:13:34,42.805,6.029,CST-1368DR,5209,7073,14540,0.286,551
2021-09-20T05:16:36,42.805,6.029,CST-1368DR,5209,7073,14541,0.285,551
2021-09-20T05:19:38,42.805,6.029,CST-1368DR,5209,7073,14541,0.285,551
2021-09-20T05:22:39,42.805,6.029,CST-1368DR,5209,7072,14539,0.286,551
2021-09-20T05:25:41,42.805,6.029,CST-1368DR,5209,7072,14538,0.286,551
2021-09-20T05:28:42,42.805,6.029,CST-1368DR,5209,7072,14539,0.286,551
2021-09-20T05:31:44,42.805,6.029,CST-1368DR,5209,7072,14538,0.286,551
2021-09-20T05:34:45,42.805,6.029,CST-1368DR,5209,7073,14540,0.286,551
2021-09-20T05:37:47,42.805,6.029,CST-1368DR,5209,7072,14539,0.286,551
2021-09-20T05:40:49,42.805,6.029,CST-1368DR,5209,7072,14538,0.286,551
2021-09-20T05:43:50,42.805,6.029,CST-1368DR,5209,7073,14541,0.285,551
2021-09-20T05:46:52,42.805,6.029,CST-1368DR,5209,7073,14540,0.286,551
2021-09-20T05:49:53,42.805,6.029,CST-1368DR,5209,7072,14538,0.286,551
2021-09-20T05:52:55,42.805,6.029,CST-1368DR,5209,7072,14538,0.286,551
2021-09-20T05:55:56,42.805,6.029,CST-1368DR,5209,7072,14539,0.286,551
2021-09-20T05:58:58,42.805,6.029,CST-1368DR,5209,7073,14540,0.286,551
2021-09-20T06:02:00,42.805,6.029,CST-1368DR,5209,7073,14540,0.286,551
2021-09-20T06:05:01,42.805,6.029,CST-1368DR,5209,7071,14537,0.286,551
2021-09-20T06:08:03,42.805,6.029,CST-1368DR,5209,7072,14538,0.286,551
2021-09-20T06:11:04,42.805,6.029,CST-1368DR,5209,7072,14538,0.286,551
2021-09-20T06:14:06,42.805,6.029,CST-1368DR,5209,7072,14539,0.286,551
2021-09-20T06:17:08,42.805,6.029,CST-1368DR,5209,7072,14538,0.286,551
2021-09-20T06:20:09,42.805,6.029,CST-1368DR,5209,7072,14538,0.286,551
2021-09-20T06:23:11,42.805,6.029,CST-1368DR,5209,7072,14538,0.286,551
2021-09-20T06:26:12,42.805,6.029,CST-1368DR,5209,7072,14538,0.286,551
2021-09-20T06:29:14,42.805,6.029,CST-1368DR,5209,7072,14539,0.286,551
2021-09-20T06:32:15,42.805,6.029,CST-1368DR,5209,7072,14538,0.286,551
2021-09-20T06:35:17,42.805,6.029,CST-1368DR,5209,7072,14538,0.286,551
2021-09-20T06:38:19,42.805,6.029,CST-1368DR,5209,7072,14539,0.286,551
2021-09-20T06:41:20,42.805,6.029,CST-1368DR,5209,7072,14538,0.286,551
2021-09-20T06:44:22,42.805,6.029,CST-1368DR,5209,7072,14539,0.286,551
2021-09-20T06:47:23,42.805,6.029,CST-1368DR,5209,7072,14538,0.286,551
2021-09-20T06:50:25,42.805,6.029,CST-1368DR,5209,7072,14538,0.286,551
2021-09-20T06:53:27,42.805,6.029,CST-1368DR,5209,7071,14536,0.287,551
2021-09-20T06:56:28,42.805,6.029,CST-1368DR,5209,7072,14538,0.286,551
2021-09-20T06:59:30,42.805,6.029,CST-1368DR,5209,7071,14537,0.286,551
2021-09-20T07:02:31,42.805,6.029,CST-1368DR,5209,7071,14536,0.287,551
2021-09-20T07:05:33,42.805,6.029,CST-1368DR,5209,7071,14537,0.286,551
2021-09-20T07:08:34,42.805,6.029,CST-1368DR,5209,7072,14538,0.286,551
2021-09-20T07:11:36,42.805,6.029,CST-1368DR,5209,7072,14539,0.286,551
2021-09-20T07:14:38,42.805,6.029,CST-1368DR,5209,7071,14536,0.287,551
2021-09-20T07:17:39,42.805,6.029,CST-1368DR,5209,7072,14538,0.286,551
2021-09-20T07:20:41,42.805,6.029,CST-1368DR,5209,7072,14538,0.286,551
2021-09-20T07:23:42,42.805,6.029,CST-1368DR,5209,7072,14539,0.286,551
2021-09-20T07:26:44,42.805,6.029,CST-1368DR,5209,7071,14537,0.286,551
2021-09-20T07:29:45,42.805,6.029,CST-1368DR,5209,7072,14538,0.286,551
2021-09-20T07:32:47,42.805,6.029,CST-1368DR,5209,7072,14538,0.286,551
2021-09-20T07:35:49,42.805,6.029,CST-1368DR,5209,7072,14538,0.286,551
2021-09-20T07:38:50,42.805,6.029,CST-1368DR,5209,7072,14538,0.286,551
2021-09-20T07:41:52,42.805,6.029,CST-1368DR,5209,7072,14538,0.286,551
2021-09-20T07:44:53,42.805,6.029,CST-1368DR,5209,7071,14537,0.286,551
2021-09-20T07:47:55,42.805,6.029,CST-1368DR,5209,7072,14538,0.286,551
2021-09-20T07:50:57,42.805,6.029,CST-1368DR,5209,7071,14537,0.286,551
2021-09-20T07:53:58,42.805,6.029,CST-1368DR,5209,7072,14539,0.286,551
2021-09-20T07:57:00,42.805,6.029,CST-1368DR,5209,7073,14540,0.286,551
2021-09-20T08:00:01,42.805,6.029,CST-1368DR,5209,7072,14539,0.286,551
2021-09-20T08:03:03,42.805,6.029,CST-1368DR,5209,7071,14537,0.286,551
2021-09-20T08:06:04,42.805,6.029,CST-1368DR,5209,7071,14536,0.287,550
2021-09-20T08:09:06,42.805,6.029,CST-1368DR,5209,7068,14531,0.288,551
2021-09-20T08:12:08,42.805,6.029,CST-1368DR,5209,7069,14533,0.287,551
2021-09-20T08:15:09,42.805,6.029,CST-1368DR,5209,7068,14530,0.288,551
2021-09-20T08:18:11,42.805,6.029,CST-1368DR,5209,7072,14538,0.286,551
2021-09-20T08:21:12,42.805,6.029,CST-1368DR,5209,7072,14538,0.286,551
2021-09-20T08:24:14,42.805,6.029,CST-1368DR,5209,7072,14538,0.286,551
2021-09-20T08:27:16,42.805,6.029,CST-1368DR,5209,7071,14536,0.287,551
2021-09-20T08:30:17,42.805,6.029,CST-1368DR,5209,7069,14532,0.288,551
2021-09-20T08:33:19,42.805,6.029,CST-1368DR,5209,7071,14537,0.286,551
2021-09-20T08:36:20,42.805,6.029,CST-1368DR,5209,7072,14538,0.286,551
2021-09-20T08:39:22,42.805,6.029,CST-1368DR,5209,7071,14537,0.286,551
2021-09-20T08:42:23,42.805,6.029,CST-1368DR,5209,7068,14530,0.288,551
2021-09-20T08:45:25,42.805,6.029,CST-1368DR,5209,7071,14537,0.286,551
2021-09-20T08:48:27,42.805,6.029,CST-1368DR,5209,7071,14537,0.286,551
2021-09-20T08:51:28,42.805,6.029,CST-1368DR,5209,7070,14534,0.287,551
2021-09-20T08:54:30,42.805,6.029,CST-1368DR,5209,7071,14537,0.286,551
2021-09-20T08:57:31,42.805,6.029,CST-1368DR,5209,7072,14538,0.286,551
2021-09-20T09:00:33,42.805,6.029,CST-1368DR,5209,7072,14538,0.286,551
2021-09-20T09:03:34,42.805,6.029,CST-1368DR,5209,7072,14538,0.286,551
2021-09-20T09:06:36,42.805,6.029,CST-1368DR,5209,7071,14537,0.286,551
2021-09-20T09:09:38,42.805,6.029,CST-1368DR,5209,7071,14537,0.286,551
2021-09-20T09:12:39,42.805,6.029,CST-1368DR,5209,7071,14536,0.287,551
2021-09-20T09:15:41,42.805,6.029,CST-1368DR,5209,7072,14538,0.286,551
2021-09-20T09:18:42,42.805,6.029,CST-1368DR,5209,7069,14533,0.287,551
2021-09-20T09:21:44,42.805,6.029,CST-1368DR,5209,7071,14536,0.287,551
2021-09-20T09:24:46,42.805,6.029,CST-1368DR,5209,7071,14537,0.286,551
2021-09-20T09:27:47,42.805,6.029,CST-1368DR,5209,7071,14537,0.286,551
2021-09-20T09:30:49,42.805,6.029,CST-1368DR,5209,7071,14537,0.286,551
2021-09-20T09:33:50,42.805,6.029,CST-1368DR,5209,7071,14536,0.287,551
2021-09-20T09:36:52,42.805,6.029,CST-1368DR,5209,7071,14537,0.286,551
2021-09-20T09:39:53,42.805,6.029,CST-1368DR,5209,7072,14538,0.286,551
2021-09-20T09:42:55,42.805,6.029,CST-1368DR,5209,7072,14538,0.286,551
2021-09-20T09:45:57,42.805,6.029,CST-1368DR,5209,7071,14537,0.286,551
2021-09-20T09:48:58,42.805,6.029,CST-1368DR,5209,7072,14538,0.286,551
2021-09-20T09:52:00,42.805,6.029,CST-1368DR,5209,7072,14538,0.286,551
2021-09-20T09:55:01,42.805,6.029,CST-1368DR,5209,7071,14537,0.286,551
2021-09-20T09:58:03,42.805,6.029,CST-1368DR,5209,7071,14537,0.286,551
2021-09-20T10:01:05,42.805,6.029,CST-1368DR,5209,7071,14537,0.286,551
2021-09-20T10:04:06,42.805,6.029,CST-1368DR,5209,7071,14537,0.286,551
2021-09-20T10:07:08,42.805,6.029,CST-1368DR,5209,7071,14536,0.287,551
2021-09-20T10:10:09,42.805,6.029,CST-1368DR,5209,7072,14538,0.286,551
2021-09-20T10:13:11,42.805,6.029,CST-1368DR,5209,7071,14537,0.286,551
2021-09-20T10:16:12,42.805,6.029,CST-1368DR,5209,7071,14536,0.287,551
2021-09-20T10:19:14,42.805,6.029,CST-1368DR,5209,7071,14536,0.287,551
2021-09-20T10:22:16,42.805,6.029,CST-1368DR,5209,7070,14535,0.287,551
2021-09-20T10:25:17,42.805,6.029,CST-1368DR,5209,7071,14536,0.287,551
2021-09-20T10:28:19,42.805,6.029,CST-1368DR,5209,7072,14538,0.286,551
2021-09-20T10:31:20,42.805,6.029,CST-1368DR,5209,7072,14538,0.286,551
2021-09-20T10:34:22,42.805,6.029,CST-1368DR,5209,7071,14537,0.286,551
2021-09-20T10:37:23,42.805,6.029,CST-1368DR,5208,7062,14520,0.291,551
2021-09-20T10:40:25,42.805,6.029,CST-1368DR,5209,7071,14537,0.286,551
2021-09-20T10:43:27,42.805,6.029,CST-1368DR,5209,7071,14537,0.286,551
2021-09-20T10:46:28,42.805,6.029,CST-1368DR,5209,7071,14537,0.286,551
2021-09-20T10:49:30,42.805,6.029,CST-1368DR,5209,7071,14536,0.287,551
2021-09-20T10:52:31,42.805,6.029,CST-1368DR,5209,7071,14537,0.286,551
2021-09-20T10:55:33,42.805,6.029,CST-1368DR,5209,7071,14537,0.286,551
2021-09-20T10:58:35,42.805,6.029,CST-1368DR,5209,7071,14536,0.287,551
2021-09-20T11:01:36,42.805,6.029,CST-1368DR,5209,7071,14537,0.286,551
2021-09-20T11:04:38,42.805,6.029,CST-1368DR,5209,7071,14536,0.287,551
2021-09-20T11:07:39,42.805,6.029,CST-1368DR,5209,7071,14536,0.287,551
2021-09-20T11:10:41,42.805,6.029,CST-1368DR,5209,7071,14536,0.287,551
2021-09-20T11:13:42,42.805,6.029,CST-1368DR,5209,7071,14537,0.286,551
2021-09-20T11:16:44,42.805,6.029,CST-1368DR,5209,7071,14537,0.286,551
2021-09-20T11:19:46,42.805,6.029,CST-1368DR,5208,7071,14539,0.286,551
2021-09-20T11:22:47,42.805,6.029,CST-1368DR,5209,7071,14536,0.287,551
2021-09-20T11:25:49,42.805,6.029,CST-1368DR,5209,7071,14536,0.287,551
2021-09-20T11:28:50,42.805,6.029,CST-1368DR,5209,7071,14537,0.286,551
2021-09-20T11:31:52,42.805,6.029,CST-1368DR,5209,7071,14537,0.286,551
2021-09-20T11:34:54,42.805,6.029,CST-1368DR,5209,7071,14537,0.286,551
2021-09-20T11:37:55,42.805,6.029,CST-1368DR,5209,7072,14538,0.286,551
2021-09-20T11:40:57,42.805,6.029,CST-1368DR,5209,7071,14537,0.286,551
2021-09-20T11:43:58,42.805,6.029,CST-1368DR,5209,7071,14537,0.286,551
2021-09-20T11:47:00,42.805,6.029,CST-1368DR,5209,7072,14538,0.286,551
2021-09-20T11:50:01,42.805,6.029,CST-1368DR,5209,7072,14538,0.286,551
2021-09-20T11:53:03,42.805,6.029,CST-1368DR,5209,7072,14538,0.286,551
2021-09-20T11:56:05,42.805,6.029,CST-1368DR,5209,7071,14536,0.287,551
2021-09-20T11:59:06,42.805,6.029,CST-1368DR,5209,7071,14536,0.287,551
2021-09-20T12:02:08,42.805,6.029,CST-1368DR,5209,7071,14537,0.286,551
2021-09-20T12:05:09,42.805,6.029,CST-1368DR,5208,7070,14538,0.286,551
2021-09-20T12:08:11,42.805,6.029,CST-1368DR,5208,7071,14539,0.286,551
2021-09-20T12:11:12,42.805,6.029,CST-1368DR,5209,7071,14536,0.287,551
2021-09-20T12:14:14,42.805,6.029,CST-1368DR,5209,7071,14536,0.287,551
2021-09-20T12:17:16,42.805,6.029,CST-1368DR,5209,7071,14537,0.286,551
2021-09-20T12:20:17,42.805,6.029,CST-1368DR,5208,7072,14541,0.285,551
2021-09-20T12:23:19,42.805,6.029,CST-1368DR,5209,7071,14536,0.287,551
2021-09-20T12:26:20,42.805,6.029,CST-1368DR,5209,7071,14537,0.286,551
2021-09-20T12:29:22,42.805,6.029,CST-1368DR,5208,7070,14537,0.286,551
2021-09-20T12:32:24,42.805,6.029,CST-1368DR,5208,7071,14539,0.286,551
2021-09-20T12:35:25,42.805,6.029,CST-1368DR,5208,7070,14536,0.287,551
2021-09-20T12:38:27,42.805,6.029,CST-1368DR,5208,7070,14538,0.286,551
2021-09-20T12:41:28,42.805,6.029,CST-1368DR,5208,7070,14537,0.286,551
2021-09-20T12:44:30,42.805,6.029,CST-1368DR,5208,7071,14539,0.286,551
2021-09-20T12:47:31,42.805,6.029,CST-1368DR,5208,7069,14535,0.287,551
2021-09-20T12:50:33,42.805,6.029,CST-1368DR,5208,7071,14539,0.286,551
2021-09-20T12:53:35,42.805,6.029,CST-1368DR,5208,7070,14538,0.286,551
2021-09-20T12:56:36,42.805,6.029,CST-1368DR,5208,7071,14540,0.286,551
2021-09-20T12:59:38,42.805,6.029,CST-1368DR,5208,7071,14540,0.286,551
2021-09-20T13:02:39,42.805,6.029,CST-1368DR,5208,7071,14539,0.286,551
2021-09-20T13:05:41,42.805,6.029,CST-1368DR,5208,7070,14538,0.286,551
2021-09-20T13:08:42,42.805,6.029,CST-1368DR,5208,7071,14539,0.286,551
2021-09-20T13:11:44,42.805,6.029,CST-1368DR,5208,7069,14535,0.287,551
2021-09-20T13:14:46,42.805,6.029,CST-1368DR,5208,7070,14538,0.286,551
2021-09-20T13:17:47,42.805,6.029,CST-1368DR,5208,7070,14536,0.287,551
2021-09-20T13:20:49,42.805,6.029,CST-1368DR,5208,7071,14539,0.286,551
2021-09-20T13:23:50,42.805,6.029,CST-1368DR,5208,7070,14536,0.287,551
2021-09-20T13:26:52,42.805,6.029,CST-1368DR,5208,7070,14536,0.287,551
2021-09-20T13:29:54,42.805,6.029,CST-1368DR,5208,7070,14537,0.286,551
2021-09-20T13:32:55,42.805,6.029,CST-1368DR,5208,7071,14539,0.286,551
2021-09-20T13:35:57,42.805,6.029,CST-1368DR,5208,7070,14537,0.286,551
2021-09-20T13:38:58,42.805,6.029,CST-1368DR,5208,7071,14539,0.286,551
2021-09-20T13:42:00,42.805,6.029,CST-1368DR,5208,7071,14539,0.286,551
2021-09-20T13:45:01,42.805,6.029,CST-1368DR,5208,7069,14534,0.287,551
2021-09-20T13:48:03,42.805,6.029,CST-1368DR,5208,7070,14537,0.286,551
2021-09-20T13:51:05,42.805,6.029,CST-1368DR,5208,7071,14539,0.286,551
2021-09-20T13:54:06,42.805,6.029,CST-1368DR,5208,7069,14536,0.287,551
2021-09-20T13:57:08,42.805,6.029,CST-1368DR,5208,7070,14537,0.286,551
2021-09-20T14:00:09,42.805,6.029,CST-1368DR,5208,7070,14536,0.287,551
2021-09-20T14:03:11,42.805,6.029,CST-1368DR,5208,7070,14538,0.286,551
2021-09-20T14:06:13,42.805,6.029,CST-1368DR,5208,7069,14535,0.287,551
2021-09-20T14:09:14,42.805,6.029,CST-1368DR,5208,7070,14538,0.286,551
2021-09-20T14:12:16,42.805,6.029,CST-1368DR,5208,7070,14537,0.286,551
2021-09-20T14:15:17,42.805,6.029,CST-1368DR,5208,7069,14535,0.287,551
2021-09-20T14:18:19,42.805,6.029,CST-1368DR,5208,7069,14535,0.287,551
2021-09-20T14:21:20,42.805,6.029,CST-1368DR,5208,7071,14539,0.286,551
2021-09-20T14:24:22,42.805,6.029,CST-1368DR,5208,7071,14539,0.286,551
2021-09-20T14:27:24,42.805,6.029,CST-1368DR,5208,7070,14537,0.286,551
2021-09-20T14:30:25,42.805,6.029,CST-1368DR,5208,7070,14537,0.286,551
2021-09-20T14:33:27,42.805,6.029,CST-1368DR,5208,7069,14536,0.287,551
2021-09-20T14:36:28,42.805,6.029,CST-1368DR,5208,7069,14535,0.287,551
2021-09-20T14:39:30,42.805,6.029,CST-1368DR,5208,7068,14533,0.287,551
2021-09-20T14:42:31,42.805,6.029,CST-1368DR,5208,7069,14534,0.287,551
2021-09-20T14:45:33,42.805,6.029,CST-1368DR,5208,7069,14536,0.287,551
2021-09-20T14:48:35,42.805,6.029,CST-1368DR,5208,7069,14535,0.287,550
2021-09-20T14:51:36,42.805,6.029,CST-1368DR,5208,7070,14537,0.286,551
2021-09-20T14:54:38,42.805,6.029,CST-1368DR,5208,7069,14536,0.287,551
2021-09-20T14:57:39,42.805,6.029,CST-1368DR,5208,7069,14536,0.287,551
2021-09-20T15:00:41,42.805,6.029,CST-1368DR,5208,7070,14536,0.287,551
2021-09-20T15:03:43,42.805,6.029,CST-1368DR,5208,7070,14537,0.286,551
2021-09-20T15:06:44,42.805,6.029,CST-1368DR,5208,7070,14536,0.287,551
2021-09-20T15:09:46,42.805,6.029,CST-1368DR,5208,7068,14532,0.288,551
2021-09-20T15:12:47,42.805,6.029,CST-1368DR,5208,7069,14535,0.287,551
2021-09-20T15:15:49,42.805,6.029,CST-1368DR,5208,7070,14537,0.286,551
2021-09-20T15:18:50,42.805,6.029,CST-1368DR,5208,7070,14536,0.287,551
2021-09-20T15:21:52,42.805,6.029,CST-1368DR,5208,7070,14538,0.286,551
2021-09-20T15:24:54,42.805,6.029,CST-1368DR,5208,7070,14538,0.286,551
2021-09-20T15:27:55,42.805,6.029,CST-1368DR,5208,7071,14539,0.286,551
2021-09-20T15:30:57,42.805,6.029,CST-1368DR,5208,7070,14537,0.286,551
2021-09-20T15:33:58,42.805,6.029,CST-1368DR,5208,7069,14535,0.287,551
2021-09-20T15:37:00,42.805,6.029,CST-1368DR,5208,7069,14536,0.287,551
2021-09-20T15:40:02,42.805,6.029,CST-1368DR,5208,7069,14535,0.287,551
2021-09-20T15:43:03,42.805,6.029,CST-1368DR,5208,7068,14533,0.287,551
2021-09-20T15:46:05,42.805,6.029,CST-1368DR,5208,7070,14538,0.286,551
2021-09-20T15:49:06,42.805,6.029,CST-1368DR,5208,7070,14538,0.286,551
2021-09-20T15:52:08,42.805,6.029,CST-1368DR,5208,7070,14537,0.286,551
2021-09-20T15:55:09,42.805,6.029,CST-1368DR,5208,7070,14538,0.286,551
2021-09-20T15:58:11,42.805,6.029,CST-1368DR,5208,7070,14538,0.286,551
2021-09-20T16:01:13,42.805,6.029,CST-1368DR,5208,7071,14539,0.286,551
2021-09-20T16:04:14,42.805,6.029,CST-1368DR,5208,7069,14535,0.287,551
2021-09-20T16:07:16,42.805,6.029,CST-1368DR,5208,7070,14536,0.287,551
2021-09-20T16:10:17,42.805,6.029,CST-1368DR,5208,7070,14536,0.287,551
2021-09-20T16:13:19,42.805,6.029,CST-1368DR,5208,7070,14537,0.286,551
2021-09-20T16:16:20,42.805,6.029,CST-1368DR,5208,7070,14537,0.286,551
2021-09-20T16:19:22,42.805,6.029,CST-1368DR,5208,7070,14538,0.286,551
2021-09-20T16:22:24,42.805,6.029,CST-1368DR,5208,7070,14537,0.286,551
2021-09-20T16:25:25,42.805,6.029,CST-1368DR,5208,7070,14537,0.286,551
2021-09-20T16:28:27,42.805,6.029,CST-1368DR,5208,7069,14535,0.287,551
2021-09-20T16:31:28,42.805,6.029,CST-1368DR,5208,7069,14535,0.287,551
2021-09-20T16:34:30,42.805,6.029,CST-1368DR,5208,7070,14537,0.286,551
2021-09-20T16:37:32,42.805,6.029,CST-1368DR,5208,7070,14538,0.286,551
2021-09-20T16:40:33,42.805,6.029,CST-1368DR,5208,7069,14536,0.287,551
2021-09-20T16:43:35,42.805,6.029,CST-1368DR,5208,7070,14536,0.287,551
2021-09-20T16:46:36,42.805,6.029,CST-1368DR,5208,7070,14537,0.286,551
2021-09-20T16:49:38,42.805,6.029,CST-1368DR,5208,7070,14536,0.287,551
2021-09-20T16:52:39,42.805,6.029,CST-1368DR,5208,7070,14538,0.286,551